Location: Bidart
(43.4376°N, 1.5913°W)
Time: 22:33:53
(UTC+00:00)

IRS-1C Rocket - Pass Details

Date: 19 May 2025
Orbit: 798 x 805 km, 98.8° (Epoch: 12 June)

Event Time Altitude Azimuth Distance (km) Brightness Sun altitude
Exits shadow 21:15:28 24° 156° (SSE) 1,615 5.1 -15.9°
Maximum altitude 21:18:43 77° 74° (ENE) 830 4.1 -16.3°
Drops below altitude 10° 21:24:00 10° 349° (N) 2,389 7.5 -16.9°
Sets 21:26:20 0° 348° (NNW) 3,323 8.5 -17.1°
